Theta_e
286 286 285 285 285 285 285 285 285 285 285 286 286 286 286 286 287 287 287 287 286 286 286 286 286 286 286 286 286 287 287 287 288 288 289 290 291 294 297 299 298 297 297 299 302 304 308 313 320 324 327 326 326 326 326 326 326 326 325 325 326 325 325 324 324 325 324 324 324 324 325 324 324 325 325 325 325 324 324 324 324 324 324 324 324
286 286 285 285 285 285 285 285 285 285 285 285 285 285 285 285 286 286 286 286 286 286 285 286 286 286 286 286 286 286 286 286 287 287 288 289 290 293 294 294 294 294 295 296 298 299 301 304 308 315 321 326 326 326 326 326 326 325 325 325 325 325 325 325 324 324 324 324 324 324 324 324 324 325 325 325 325 325 325 324 324 324 324 324 324
286 286 285 285 285 285 285 285 285 285 285 285 285 285 285 285 285 286 286 286 286 285 285 285 285 285 285 286 286 286 286 286 286 287 287 288 289 290 291 290 291 292 293 295 295 297 298 300 302 305 310 318 324 326 326 326 326 325 325 325 325 325 325 325 324 324 324 324 324 324 324 324 324 325 325 325 325 325 325 324 324 324 324 324 324
286 286 285 285 285 285 285 285 285 285 285 285 285 285 284 284 284 285 285 286 285 285 285 285 285 284 285 285 285 285 285 286 286 286 286 287 288 288 288 288 290 291 291 292 293 294 296 298 300 301 303 307 314 322 325 326 325 325 325 325 325 325 326 325 325 324 324 324 324 324 324 324 324 324 325 325 325 325 325 324 324 324 324 324 324
286 286 285 285 285 285 285 285 285 285 285 285 285 285 284 284 284 284 285 285 285 285 284 284 284 284 284 284 284 285 285 285 285 286 286 287 287 287 287 288 288 289 289 290 291 292 294 295 297 299 301 303 306 312 320 325 326 325 325 325 325 326 326 325 325 325 324 324 324 324 324 324 324 324 324 324 325 325 324 324 324 324 324 324 324
286 286 286 285 285 285 285 285 285 285 285 285 285 285 284 284 284 284 284 285 284 284 284 284 284 284 284 284 284 284 284 285 285 285 286 286 286 286 287 287 287 288 288 288 289 290 291 293 294 296 298 301 302 305 309 314 320 325 326 326 325 326 326 325 325 325 324 324 324 324 324 323 323 323 324 324 324 324 324 323 323 323 323 323 323
286 286 286 285 285 285 285 285 285 285 285 285 285 284 284 284 284 284 284 284 284 284 284 284 284 284 284 283 283 283 283 284 284 285 285 285 285 286 286 286 287 287 287 287 288 289 289 291 292 294 296 298 300 301 301 301 305 313 320 325 326 325 325 325 325 324 324 324 324 324 323 323 323 322 323 323 324 324 324 322 321 321 322 322 323
286 285 285 285 285 285 285 285 285 285 285 285 285 284 284 284 284 284 284 284 284 284 284 283 284 283 283 283 283 283 283 283 284 284 284 284 285 285 285 286 286 286 286 287 287 288 288 289 290 292 293 295 295 296 296 297 300 303 309 317 324 327 325 324 324 324 323 323 323 323 323 323 322 322 322 322 321 321 323 322 320 320 320 321 322
286 286 285 285 285 285 285 285 285 285 285 284 284 284 284 284 284 284 284 284 284 284 284 284 284 283 283 283 283 283 283 283 283 283 283 284 284 285 285 285 285 285 286 286 287 287 287 288 288 289 290 291 292 293 295 297 299 301 302 306 314 322 325 325 324 323 323 323 323 323 323 322 322 321 320 320 319 320 322 322 321 320 320 320 320
286 286 285 285 285 285 285 285 285 285 285 284 284 284 284 284 284 284 283 283 283 283 283 283 283 283 283 283 283 282 282 282 283 283 283 283 284 284 284 284 285 285 286 286 286 286 287 287 287 288 288 289 291 293 295 296 297 297 299 301 305 311 319 323 324 323 323 322 322 322 321 321 322 321 320 320 321 321 321 320 320 320 319 317 317
286 286 286 285 285 285 285 285 285 285 285 285 284 284 284 284 284 283 283 283 283 283 283 283 283 283 283 283 283 282 282 282 282 282 282 282 283 283 284 284 284 285 285 285 286 286 286 286 287 287 288 289 290 292 294 295 296 296 296 298 301 304 309 316 321 323 323 322 322 322 321 321 322 321 321 320 321 321 321 320 319 318 316 315 313
286 286 286 285 285 285 285 285 285 285 285 285 285 285 284 284 284 284 284 283 283 283 283 283 283 283 283 282 282 282 282 282 282 282 282 282 282 283 283 283 284 284 284 285 285 286 286 286 287 287 288 289 290 291 293 294 295 296 296 296 298 301 304 309 315 319 321 322 322 322 322 322 322 321 321 321 320 320 320 320 319 318 316 315 314
286 286 285 285 285 285 285 285 285 285 285 285 285 285 285 284 284 284 284 284 283 283 283 283 282 282 282 282 282 282 282 282 281 281 282 282 282 282 283 283 283 284 284 284 284 285 286 286 287 287 288 288 289 291 292 293 295 296 296 296 296 298 301 304 309 313 317 320 322 322 322 321 321 322 322 321 320 320 319 318 318 318 317 316 316
286 286 285 285 285 285 285 285 285 284 284 284 284 284 284 284 284 284 284 284 283 283 283 282 282 282 282 282 282 281 281 281 281 281 281 281 282 282 283 283 283 283 283 283 284 284 285 286 287 287 287 288 289 290 292 293 294 295 295 295 296 297 299 301 305 309 313 316 318 320 321 321 321 322 322 322 321 320 319 318 318 318 318 318 319
286 285 285 285 285 285 284 284 284 284 284 284 284 284 284 284 284 284 283 283 283 283 282 282 282 282 282 282 281 281 281 281 281 281 281 281 281 282 282 282 282 283 282 283 283 284 285 285 286 287 287 288 289 290 291 292 293 294 294 295 295 296 297 299 301 306 310 314 316 318 319 321 321 322 322 322 321 321 321 320 320 320 319 318 317
285 285 285 285 285 285 284 284 284 284 284 284 284 284 284 284 283 283 283 282 282 282 282 282 282 281 281 281 281 280 280 280 280 281 281 281 281 281 282 282 282 282 282 282 283 283 284 285 286 286 287 287 288 289 290 291 292 293 294 294 294 295 296 297 299 302 306 310 314 316 317 319 321 321 322 321 321 321 321 320 320 319 317 315 313
285 285 285 285 285 285 284 284 284 284 284 284 283 283 283 283 283 282 282 282 281 281 281 281 281 281 281 281 280 280 280 280 280 280 280 280 280 281 281 281 282 282 282 282 283 283 284 285 285 286 286 287 288 289 290 291 291 292 293 294 294 295 295 296 299 301 303 307 311 314 315 317 319 321 321 321 321 321 320 317 317 316 314 313 310
285 285 285 285 285 284 284 284 284 283 283 283 283 283 283 282 282 282 281 281 281 281 281 280 280 280 280 280 280 280 279 279 279 279 279 279 280 281 281 281 281 281 282 282 282 283 284 284 285 285 286 286 287 288 289 289 290 291 292 293 294 294 294 296 298 300 303 305 309 312 314 316 318 319 320 321 321 321 320 317 317 315 312 312 310
285 285 285 285 284 284 284 284 283 283 283 283 282 282 282 281 281 281 280 280 280 280 280 280 280 279 279 279 279 279 279 279 279 279 279 279 280 280 280 281 281 281 282 282 282 283 283 284 284 284 285 286 287 288 288 288 289 290 291 293 293 294 294 295 296 298 299 301 305 309 313 316 317 317 318 319 320 320 320 319 318 316 313 312 310
285 285 284 284 284 283 283 283 283 283 282 282 281 281 280 280 280 279 279 279 279 279 279 279 279 279 278 278 278 278 278 278 278 278 278 279 279 280 280 281 281 281 281 282 282 283 283 284 284 284 284 285 286 287 287 287 287 288 290 292 293 293 293 293 294 294 294 296 298 303 308 313 316 316 316 317 318 319 320 320 319 317 315 313 311
285 284 284 283 283 283 283 282 282 281 280 280 279 279 279 279 278 278 278 278 278 278 278 278 278 278 277 277 277 277 277 277 277 277 277 278 279 280 280 280 281 281 281 281 282 282 283 283 284 284 284 285 285 286 286 286 286 287 290 291 291 291 291 291 291 291 292 294 295 298 302 308 313 315 315 315 316 317 319 319 319 317 316 315 312
284 283 283 283 282 282 282 281 280 279 279 278 278 278 278 277 277 277 277 277 277 277 277 277 277 277 277 277 276 276 276 276 276 276 277 277 278 279 280 280 280 281 281 281 282 282 283 283 283 284 284 284 285 285 285 285 285 286 288 289 289 289 289 289 289 290 291 293 295 297 301 305 309 312 313 313 313 315 317 318 318 317 316 317 316
283 283 282 282 281 280 280 279 278 278 277 277 277 277 276 276 276 276 276 276 276 276 276 276 276 276 276 276 276 276 275 276 276 276 276 277 278 278 279 280 280 281 281 282 282 282 283 283 283 284 284 284 284 284 284 284 284 285 287 287 287 286 286 286 287 288 290 292 295 297 300 303 306 309 310 311 312 314 315 317 317 316 315 316 317
282 281 281 280 279 279 278 278 277 277 276 276 276 276 275 275 275 275 275 275 275 275 275 275 275 275 275 275 275 275 275 275 275 275 276 277 277 278 279 279 280 280 281 281 282 282 283 283 283 283 283 283 283 283 283 283 284 285 285 286 285 284 284 285 286 287 289 292 295 297 299 302 305 307 309 311 312 313 315 315 315 315 315 316 317
280 280 279 278 278 277 277 276 276 276 275 275 275 274 274 274 274 274 274 274 274 274 274 274 274 274 274 274 274 274 274 274 275 275 275 276 277 277 278 278 279 280 281 281 282 282 283 283 282 282 282 281 281 281 282 283 283 284 284 284 283 283 284 284 285 286 288 291 295 297 299 301 303 305 308 310 311 312 312 312 312 312 313 313 313
279 279 278 277 277 276 275 275 275 275 274 274 274 274 273 273 273 273 273 273 273 273 273 273 273 273 273 273 273 274 274 274 274 274 274 275 275 276 277 278 279 279 280 280 280 280 280 280 280 279 279 279 280 281 281 282 282 282 282 282 283 283 284 285 286 287 289 292 295 297 298 300 302 304 306 308 309 309 309 309 309 308 309 309 308
278 277 277 276 276 275 274 274 274 273 273 273 272 272 272 272 272 272 272 272 272 272 272 272 272 272 272 272 273 273 273 273 273 274 274 275 276 277 277 278 278 277 277 277 277 277 277 277 277 278 278 279 280 281 281 281 281 281 282 283 283 284 285 286 287 289 290 292 295 296 298 300 301 303 305 306 306 307 308 307 307 305 305 306 304
277 276 275 275 274 274 273 273 272 272 272 271 271 271 271 271 271 271 271 271 271 271 271 271 271 271 272 272 272 273 273 273 274 274 275 276 276 277 277 276 276 276 276 276 276 276 277 277 278 278 279 280 280 280 280 280 281 281 282 283 283 284 284 285 287 289 291 293 295 296 297 299 300 301 303 304 304 305 305 305 304 303 302 302 300
276 275 274 273 273 273 272 271 271 271 270 270 270 270 270 270 270 270 270 270 270 270 270 271 271 271 272 272 273 273 274 274 274 275 275 276 276 276 276 276 276 276 277 277 277 278 278 279 279 280 280 281 281 281 281 282 282 282 283 283 284 284 285 286 288 290 291 293 294 295 296 297 299 300 301 301 301 303 302 302 302 301 300 301 299
274 274 273 272 272 271 271 270 270 269 269 269 269 269 269 269 269 269 270 270 270 270 271 272 272 272 273 273 273 273 274 274 274 274 275 275 275 276 276 276 276 277 277 277 278 278 279 279 280 280 280 281 281 281 282 282 282 282 282 283 283 284 285 287 288 290 291 293 294 295 296 296 297 298 298 298 299 300 299 299 300 299 298 299 298
273 272 271 271 270 270 269 269 269 268 268 268 268 268 268 268 268 269 269 269 270 270 271 271 272 272 272 273 273 273 273 273 273 274 274 274 275 275 275 276 276 276 276 277 277 278 278 279 279 279 280 280 281 281 282 282 282 282 283 283 284 284 285 287 288 289 291 292 293 294 295 296 296 297 297 297 298 297 296 296 297 297 297 299 298
271 271 270 269 269 268 268 268 267 267 267 267 267 267 267 267 267 268 268 268 269 269 269 270 270 270 271 271 271 272 272 272 272 273 273 273 274 274 274 274 274 275 275 276 277 277 277 278 278 279 279 280 280 281 281 282 282 282 283 283 284 284 285 286 287 288 290 292 293 294 294 295 296 296 296 296 296 295 294 294 295 295 297 298 296
270 269 269 268 267 267 267 266 266 266 266 266 266 266 266 266 267 267 267 267 267 267 267 268 268 269 269 270 270 270 271 271 271 271 272 272 272 272 272 272 273 273 274 275 275 276 276 277 277 278 279 280 280 281 281 282 282 282 282 283 283 284 285 285 286 287 288 290 292 293 294 295 295 295 295 295 294 294 293 294 294 295 296 295 294
269 268 268 267 266 266 266 265 265 265 265 265 265 265 265 265 265 265 265 265 265 265 266 266 266 267 267 268 268 268 269 269 269 270 270 270 270 271 271 272 272 273 273 274 274 275 275 276 277 278 279 280 280 280 280 281 281 282 283 283 284 284 284 285 285 286 288 290 291 293 294 294 295 295 294 294 293 293 293 293 293 294 294 293 291
268 267 266 266 265 265 265 265 264 264 264 264 264 264 264 264 264 264 264 265 265 265 265 265 265 265 266 266 266 267 267 268 268 268 269 269 269 270 270 271 271 272 272 273 274 274 274 275 276 277 278 279 280 280 280 281 281 282 283 283 284 284 284 284 285 285 287 289 291 292 293 294 294 294 294 293 292 292 292 292 293 293 294 292 291
267 266 265 265 264 264 264 264 263 263 263 263 263 264 264 264 264 264 264 264 264 264 264 264 264 264 265 265 265 265 266 266 266 267 267 268 268 269 269 270 270 271 271 272 273 274 274 275 276 276 277 278 279 279 280 280 281 281 282 283 284 285 285 286 286 287 287 288 290 292 293 293 294 293 293 293 292 292 292 292 292 293 293 292 290
266 265 265 264 264 263 263 263 263 263 263 263 263 263 263 263 263 263 263 264 264 264 264 264 264 264 264 264 264 264 264 264 265 265 266 266 267 267 268 268 269 269 270 270 271 271 272 273 274 275 276 277 278 279 280 280 280 281 282 282 283 284 285 286 287 288 288 289 290 291 293 293 293 293 293 292 292 292 292 292 292 293 293 291 290
265 265 264 264 263 262 262 262 262 262 262 262 262 262 262 262 263 263 263 263 263 263 263 263 263 263 263 263 263 263 263 263 264 264 264 265 265 266 266 267 267 268 269 269 270 270 271 272 273 274 275 276 277 278 279 280 280 281 282 283 283 284 284 285 286 286 288 289 290 291 292 293 293 293 293 293 293 292 292 292 292 292 291 290 289
265 264 263 263 262 262 262 262 262 262 262 262 262 262 262 262 262 262 262 263 263 263 263 263 263 263 263 263 263 263 263 263 264 264 264 265 265 266 266 267 267 268 268 269 270 270 271 272 273 273 274 275 276 277 277 278 279 280 281 282 283 283 284 286 286 286 287 288 289 291 292 293 293 293 292 292 292 292 292 292 292 291 289 288 288
264 263 262 262 261 261 261 261 261 261 261 261 262 262 262 262 262 262 262 262 262 262 262 262 262 262 262 262 262 262 263 263 264 264 264 265 265 266 266 267 267 267 268 268 269 269 270 271 271 272 273 274 275 276 277 278 279 280 281 282 283 284 285 286 286 287 288 289 289 291 292 293 293 292 292 292 292 292 292 291 291 290 289 288 288
263 262 262 261 260 260 261 261 261 261 261 261 261 261 261 261 261 261 261 261 262 262 262 262 262 262 262 262 262 262 262 263 263 264 264 264 265 265 265 266 267 267 267 268 269 269 270 270 270 271 271 272 273 274 275 277 279 280 281 282 283 284 285 285 286 287 288 289 290 291 292 292 292 292 292 292 292 292 292 291 290 290 288 287 287
262 261 261 260 260 260 260 260 261 261 261 261 261 261 261 261 261 261 261 261 261 261 261 261 261 261 261 261 261 262 262 263 263 263 264 264 264 264 265 265 266 266 266 267 268 268 269 269 270 270 271 272 272 274 275 276 277 279 280 281 282 283 284 285 286 287 287 288 290 291 291 292 292 292 291 292 291 291 291 290 289 288 287 286 286
262 261 260 260 260 260 260 260 260 260 260 260 260 260 260 261 261 261 261 260 260 260 260 260 261 261 261 261 261 262 262 262 263 263 263 264 264 264 265 265 265 266 266 266 267 267 268 268 269 270 271 271 272 273 274 275 276 278 280 281 282 283 284 285 286 287 288 288 290 291 291 291 292 291 291 291 291 290 290 289 288 287 286 285 284
261 260 260 260 260 260 260 260 260 260 260 260 260 260 260 260 260 260 260 260 260 260 260 260 260 260 261 261 261 261 262 262 262 263 263 263 264 264 265 265 266 266 266 267 267 267 268 268 269 269 270 271 272 273 273 274 276 277 279 280 281 282 283 285 286 287 288 289 290 291 291 291 291 291 291 290 290 290 289 288 287 286 285 284 283
261 260 259 259 259 259 259 259 259 259 259 259 260 260 260 259 259 259 259 259 259 259 259 260 260 260 260 260 260 261 261 261 261 262 262 263 264 264 265 265 266 266 266 267 267 267 268 268 269 269 270 270 271 272 273 274 275 276 277 278 280 281 283 284 286 287 288 290 290 291 291 291 291 290 290 290 289 289 288 288 287 285 284 283 282
260 259 259 259 259 259 259 259 259 259 259 259 259 259 259 259 259 259 259 259 259 259 259 259 259 259 259 260 260 260 260 260 261 261 262 262 263 263 264 264 264 265 265 265 266 266 267 268 268 269 270 271 272 272 273 274 275 276 277 278 279 281 282 283 286 288 289 289 290 290 291 290 290 290 289 289 289 288 288 287 286 285 284 283 282
259 259 259 259 258 258 258 258 259 259 259 259 259 259 259 259 258 258 258 258 258 258 258 258 258 259 259 259 259 259 260 260 260 261 261 262 262 262 263 263 264 264 265 265 265 266 266 267 268 269 269 270 270 271 272 272 273 274 275 276 277 279 280 282 285 288 289 289 290 290 290 290 290 289 288 288 288 287 287 286 285 284 283 282 282
259 259 259 259 258 258 258 258 258 258 258 258 258 258 258 258 258 258 258 258 258 258 258 258 258 258 258 258 259 259 259 259 260 260 261 261 262 262 262 263 263 264 264 265 265 265 266 266 267 267 268 268 269 270 270 271 272 273 275 276 277 278 280 282 285 288 290 290 290 290 290 290 289 288 287 287 287 286 286 285 284 283 282 282 281
260 259 259 258 258 258 258 258 258 258 258 258 258 258 257 257 257 257 257 257 257 257 257 257 257 257 257 258 258 258 259 259 259 260 260 261 261 262 262 263 263 264 264 265 265 266 266 266 267 267 268 269 269 270 271 272 272 273 275 276 277 279 281 283 285 288 289 289 289 289 289 289 288 287 287 286 286 285 285 284 283 282 281 281 280
260 259 259 258 258 257 258 258 257 257 257 257 257 257 257 257 257 257 257 257 257 256 256 256 257 257 257 257 257 258 258 259 259 260 260 261 262 262 263 263 264 264 265 265 266 266 267 267 268 268 269 269 270 271 271 272 273 274 275 276 277 279 281 284 286 288 289 289 289 289 289 288 287 286 285 285 285 284 283 282 282 281 280 280 280
260 259 259 259 258 257 257 257 257 257 257 257 257 257 256 256 256 256 256 256 256 256 256 256 256 256 257 257 257 258 258 259 259 260 261 262 262 263 264 264 265 265 265 266 266 267 267 267 268 268 269 269 270 270 271 271 272 273 274 276 277 279 281 284 286 287 288 288 288 288 287 287 286 285 284 284 283 283 282 281 281 280 280 279 279
Wind_Speed
24 25 26 25 26 26 26 27 26 27 27 27 27 28 29 29 29 30 31 32 34 35 35 36 36 37 37 37 38 39 39 40 39 38 38 37 36 35 35 35 35 36 37 36 35 34 34 33 30 28 29 30 31 32 33 34 33 34 33 32 31 30 30 24 14 14 25 28 26 27 27 24 24 23 21 20 20 20 22 25 27 26 25 25 25
23 24 25 25 25 25 26 26 27 27 28 28 28 29 30 30 29 30 31 32 33 34 35 35 35 36 36 36 37 37 38 38 39 38 38 37 36 34 34 35 36 38 38 37 36 37 37 37 35 33 30 29 31 31 32 33 32 33 33 32 31 30 30 28 21 14 19 26 25 24 25 24 25 27 27 26 26 25 24 25 26 27 26 26 26
22 23 24 24 24 24 25 26 27 27 27 28 29 30 31 31 31 31 31 31 33 34 34 35 35 36 36 35 36 36 36 37 37 37 36 35 34 34 34 34 34 36 37 36 36 36 37 37 37 37 35 32 31 32 33 34 32 32 34 33 32 33 32 32 27 19 18 26 28 24 24 25 26 27 27 26 26 26 27 27 27 27 27 27 28
23 24 25 25 25 24 25 25 26 28 28 27 28 29 30 31 31 32 32 32 33 34 34 34 35 36 36 36 36 36 36 36 36 36 35 34 33 34 35 35 34 33 34 35 35 35 34 35 37 37 37 37 34 32 32 33 33 33 34 35 34 34 33 33 32 27 22 24 28 27 26 27 28 27 26 25 24 26 28 27 27 29 29 28 29
23 24 25 26 27 26 25 26 26 28 28 28 28 28 29 30 31 32 32 33 34 35 35 35 34 35 36 36 36 36 36 35 35 36 35 33 33 34 35 35 35 34 33 34 34 34 33 34 35 36 35 35 36 34 32 32 33 34 34 35 34 34 33 32 34 33 28 24 27 29 27 26 27 27 27 27 26 26 28 28 28 29 29 30 30
20 22 23 25 26 26 26 26 26 27 28 28 29 29 29 29 30 31 31 32 34 35 36 35 34 34 35 35 35 36 36 35 35 34 34 34 35 36 36 36 36 36 36 35 33 33 33 34 35 35 34 34 34 34 36 36 33 33 35 35 34 33 33 33 33 33 31 29 29 30 28 26 26 26 27 28 27 27 27 26 27 29 30 32 33
21 22 23 25 26 26 26 26 26 27 28 28 29 29 30 30 31 31 30 30 32 34 36 36 36 35 35 35 35 35 36 36 35 34 33 35 37 37 37 37 37 37 37 37 35 34 35 34 35 35 33 33 33 34 37 40 38 35 33 35 35 34 32 33 33 32 30 29 28 29 30 29 28 28 28 28 29 30 28 25 25 28 32 34 35
21 22 23 25 26 27 27 27 27 27 28 29 29 29 29 30 32 33 33 31 30 31 33 35 36 37 36 36 35 35 35 35 35 34 34 36 37 37 37 37 38 38 39 39 38 36 36 35 34 34 33 34 36 39 40 41 39 39 38 35 34 35 34 32 31 29 29 27 26 28 29 28 28 27 26 26 26 26 28 28 27 28 31 33 35
18 18 19 21 23 25 26 26 27 27 28 30 31 31 31 31 33 34 34 33 32 32 32 32 34 36 38 38 36 35 35 34 34 34 36 37 37 37 37 37 37 38 38 39 40 39 38 37 36 36 37 38 40 40 39 38 37 37 38 39 36 33 33 32 30 28 27 25 24 25 24 23 26 25 23 26 28 27 29 30 27 26 30 32 34
17 17 18 19 20 22 23 24 25 25 26 28 28 30 31 32 34 35 35 35 34 35 34 32 32 34 36 38 38 37 36 35 35 36 37 38 38 37 38 38 37 37 37 38 40 40 40 39 39 39 40 41 40 39 38 39 39 39 38 38 39 36 32 30 30 29 26 23 23 23 18 18 25 27 26 31 33 30 29 30 27 24 25 26 25
18 18 19 19 20 22 23 24 25 25 26 27 27 28 29 30 32 34 35 36 36 35 35 35 34 34 34 35 37 38 39 38 38 39 39 39 39 39 39 39 38 37 36 36 38 40 42 42 41 40 40 40 39 39 39 40 40 40 40 38 37 38 38 33 29 30 28 24 24 24 19 19 27 30 31 33 34 32 32 33 29 24 21 18 14
18 19 19 20 21 23 24 25 26 26 27 28 28 28 29 29 30 32 34 35 36 36 36 36 36 36 35 35 35 37 39 41 42 41 41 41 41 40 39 39 38 37 37 37 37 39 40 42 42 41 39 39 39 40 40 41 40 40 40 41 40 39 39 38 35 32 29 26 26 26 26 26 29 30 33 33 32 33 34 33 31 29 25 21 16
19 20 20 20 21 23 25 26 27 28 28 29 29 29 28 29 30 32 33 34 35 35 36 36 37 37 37 37 37 38 39 41 43 43 43 43 42 40 40 39 39 39 38 38 38 38 38 39 41 41 40 39 39 39 39 40 41 41 41 42 42 41 40 39 39 39 36 32 29 29 33 34 31 32 36 36 32 31 31 30 32 31 28 26 27
20 22 21 20 22 24 26 27 28 29 30 30 30 29 29 30 31 31 32 33 33 34 35 36 37 37 37 37 38 40 40 41 43 44 45 45 43 40 39 40 40 40 40 39 38 38 38 37 38 40 41 41 39 38 38 39 41 43 43 44 43 42 42 40 39 40 42 41 36 36 39 39 37 39 39 38 36 35 33 32 32 33 34 35 37
22 22 21 21 23 25 26 28 29 30 31 31 31 30 30 31 31 30 31 31 32 33 34 36 37 37 38 37 38 40 42 43 43 43 44 46 46 43 40 40 41 41 41 40 39 39 38 37 38 39 39 40 39 37 37 38 40 41 42 43 42 41 42 42 40 39 40 42 42 44 44 42 41 43 41 38 40 42 41 39 39 39 39 35 30
23 23 22 23 25 26 27 28 30 31 31 31 31 31 31 31 30 31 31 31 32 33 34 35 36 37 38 38 39 40 43 44 44 44 44 45 45 44 42 41 41 41 41 41 40 40 39 37 37 38 38 39 39 38 36 36 38 40 41 41 42 42 43 44 42 40 39 41 43 45 48 47 44 43 42 41 41 43 42 39 38 36 31 23 19
25 24 24 25 26 26 27 28 30 30 30 29 29 30 30 30 31 32 32 33 34 34 35 36 36 37 38 39 40 41 43 45 44 45 45 45 44 43 42 42 41 41 42 41 40 40 39 38 38 38 39 38 38 37 36 35 36 37 38 40 40 41 44 44 42 39 38 39 41 44 48 50 49 46 45 44 44 44 39 31 30 31 24 14 11
26 26 26 26 25 25 26 27 28 28 28 28 28 29 30 31 33 34 33 35 36 36 37 37 37 37 38 40 41 42 44 46 46 46 46 46 44 43 42 41 41 41 41 41 40 39 39 40 39 38 38 38 37 37 35 35 36 36 36 38 39 40 43 41 37 36 36 35 38 41 44 49 51 50 47 46 47 46 41 34 34 33 24 16 12
28 27 26 24 23 23 24 25 26 26 27 28 29 30 32 34 34 35 34 35 37 38 38 38 38 39 39 40 42 43 45 48 49 48 46 44 43 43 42 40 39 39 40 41 40 39 39 39 39 38 38 37 36 35 34 34 35 36 36 36 36 38 40 36 33 36 39 38 37 38 41 45 50 51 49 47 46 47 46 43 41 36 29 24 21
28 25 22 21 21 22 23 24 25 27 28 30 32 33 34 35 36 36 36 36 37 37 38 38 40 41 42 43 44 44 46 48 50 52 50 46 43 42 42 40 38 38 39 39 40 39 38 38 38 39 38 36 34 33 33 34 36 38 38 36 34 37 40 37 37 41 43 43 42 40 40 42 45 48 48 47 46 46 48 47 45 43 39 33 28
23 20 19 20 21 22 23 25 27 29 30 32 34 34 35 36 36 37 37 37 36 37 39 39 40 42 44 45 45 46 47 49 51 53 52 48 44 42 42 41 39 39 40 39 39 39 38 38 37 38 38 37 35 34 33 34 36 38 38 37 37 39 40 40 42 44 44 43 43 41 39 39 40 42 45 46 46 47 49 48 47 48 47 40 33
18 17 19 20 22 24 26 28 30 31 32 32 33 34 36 36 37 37 37 37 37 38 40 40 41 42 44 45 46 48 49 49 51 52 52 49 45 42 42 42 41 40 39 39 39 39 39 39 38 37 38 38 38 37 36 37 38 38 40 41 41 41 40 39 40 42 41 40 38 36 35 36 36 38 40 42 44 46 48 49 49 49 50 49 44
17 18 21 22 25 27 29 30 31 31 32 32 33 35 37 36 37 37 37 37 37 38 39 40 39 40 42 43 45 48 49 50 50 50 49 48 46 44 43 43 43 42 40 39 39 40 40 40 39 39 38 38 38 39 40 41 41 40 41 43 43 42 41 39 37 38 38 36 34 32 32 33 34 35 37 40 43 46 47 49 50 49 48 50 49
19 21 24 25 27 29 30 30 31 31 32 33 33 34 36 36 36 37 37 37 37 37 38 39 37 37 39 40 43 47 49 50 51 50 49 48 47 45 43 42 43 43 41 40 40 40 40 40 39 38 37 37 40 44 46 46 44 43 43 44 44 43 41 38 35 34 33 32 31 30 31 32 33 34 37 40 42 44 46 47 49 50 49 49 48
21 24 26 27 28 30 30 31 31 32 32 33 32 33 34 35 36 36 36 36 36 35 36 37 36 35 37 38 40 45 48 48 49 50 49 48 48 48 47 46 45 43 42 40 40 40 40 40 40 40 42 44 45 46 46 44 43 43 44 44 43 42 39 37 35 32 30 29 29 29 31 33 34 36 39 41 40 40 41 41 43 44 44 43 42
23 25 26 28 29 29 29 31 32 33 33 33 32 33 33 33 35 36 36 36 36 35 35 36 36 36 37 39 39 42 45 45 46 49 52 53 53 51 47 42 39 37 37 39 42 45 47 48 49 49 49 47 44 42 41 43 45 46 46 45 43 40 37 34 32 29 28 29 30 30 33 35 35 36 37 37 37 38 39 38 37 37 38 38 34
24 25 26 27 28 28 29 31 33 33 34 33 32 32 33 34 34 35 36 36 35 34 34 35 36 36 36 39 40 41 43 44 46 49 51 50 47 42 37 35 36 40 44 47 49 52 52 52 51 49 47 44 41 40 41 44 45 45 44 42 40 37 35 34 33 31 31 32 31 32 34 35 33 33 33 34 35 37 39 39 37 36 37 36 32
23 25 26 27 28 29 30 31 32 33 33 33 32 32 34 35 35 36 38 37 35 35 36 37 38 38 37 37 37 38 40 41 42 43 43 40 39 39 40 42 44 46 48 48 48 48 48 47 45 43 42 40 39 40 41 43 44 44 43 42 41 40 39 38 36 35 36 36 34 32 32 32 31 31 32 32 33 35 37 38 37 37 38 35 27
24 25 26 26 28 29 29 30 31 31 32 33 34 34 35 35 35 38 43 42 37 36 38 39 40 39 38 37 36 34 34 38 42 44 44 44 46 48 48 47 45 44 44 45 44 43 42 40 38 35 33 31 32 34 35 37 38 39 39 38 37 36 36 34 31 32 34 34 32 30 29 29 30 30 30 30 32 34 36 37 35 34 36 33 27
24 26 26 27 28 28 29 30 30 31 31 32 33 36 39 39 36 36 40 43 41 38 39 41 42 42 40 41 41 40 40 44 49 50 50 50 51 51 50 50 48 46 46 46 45 43 41 38 33 31 29 27 27 29 30 31 33 34 36 37 36 35 34 33 31 31 32 31 30 29 29 28 28 27 27 27 29 30 33 35 33 31 32 29 24
23 26 26 27 28 28 28 30 30 31 32 32 32 34 39 44 44 41 38 38 40 41 41 41 42 43 42 43 45 45 47 49 50 49 49 49 49 49 48 48 47 46 47 46 42 39 37 33 29 29 30 29 28 29 30 31 32 33 34 34 33 31 31 31 30 31 30 30 29 29 28 27 27 27 27 27 27 26 28 29 28 28 29 28 25
22 25 26 26 27 28 29 30 30 31 32 33 33 33 34 38 44 47 44 39 36 38 41 43 44 44 43 43 43 44 45 45 46 46 46 46 46 46 46 46 46 45 46 45 38 32 30 28 25 27 29 30 31 34 34 32 32 33 32 31 30 30 31 32 32 31 30 29 28 28 28 28 27 27 27 27 25 23 24 25 25 26 25 24 24
22 24 26 26 26 28 29 29 30 30 30 31 33 34 32 30 31 39 48 51 48 44 41 39 40 41 41 39 39 40 42 44 45 46 46 46 47 48 47 47 47 46 45 41 33 29 29 29 29 31 32 31 32 34 34 33 34 36 35 33 32 32 32 32 32 32 31 31 31 29 28 28 28 26 25 25 24 23 23 24 25 25 22 19 20
23 24 25 25 26 28 29 29 29 30 30 31 32 33 34 35 33 34 39 45 48 49 46 39 34 34 37 39 40 40 42 45 45 46 47 47 47 47 47 46 45 44 42 38 33 30 30 30 30 32 32 32 35 36 35 35 35 34 33 33 32 33 34 33 32 32 32 32 31 30 29 28 27 25 23 23 23 23 23 23 23 23 20 19 22
25 25 26 25 25 27 28 29 30 30 31 33 34 34 36 37 36 34 33 32 34 40 48 49 44 37 37 40 42 42 42 44 45 46 46 46 45 44 43 40 37 35 33 32 31 31 32 30 30 32 32 32 34 34 34 35 36 34 33 33 33 35 37 36 34 34 34 32 30 30 29 28 27 26 25 23 23 22 21 22 24 23 21 21 23
25 26 26 25 25 26 28 29 30 31 32 33 34 35 36 35 34 34 36 35 34 36 43 52 54 48 41 39 41 43 43 43 44 45 45 44 44 42 38 32 29 28 28 27 27 28 29 30 31 33 36 36 36 34 33 34 36 35 35 35 33 32 32 30 29 30 31 30 30 31 30 27 26 27 25 24 25 26 24 24 24 23 22 22 23
24 26 26 27 27 27 29 30 30 31 33 33 33 34 36 36 35 35 35 36 36 36 40 47 51 49 43 39 39 41 43 43 42 43 44 43 41 38 35 31 29 29 29 29 29 28 30 31 31 32 34 35 35 35 34 35 37 38 38 38 36 35 33 31 30 29 28 27 29 30 30 28 27 28 26 24 24 25 25 26 26 23 23 23 22
24 26 26 27 28 28 28 30 31 31 32 33 33 34 35 35 35 35 34 35 35 35 38 42 42 39 39 41 40 41 44 44 41 39 39 38 35 34 34 33 33 32 31 32 32 31 33 34 35 35 36 37 36 35 34 33 34 35 35 35 36 37 35 34 34 34 32 30 29 30 29 28 28 29 28 26 25 25 25 26 26 23 22 23 22
24 26 26 26 27 28 28 30 31 32 32 33 33 33 33 33 33 33 34 35 35 33 35 38 38 37 40 42 41 39 39 38 34 31 31 31 30 31 32 31 32 32 32 31 31 31 31 33 34 35 37 38 38 38 38 37 36 36 36 36 36 35 33 32 32 33 32 31 30 30 30 29 28 29 29 28 27 26 26 26 26 25 23 24 23
24 26 27 26 26 27 28 29 30 31 32 33 33 32 32 32 33 35 35 35 35 34 34 35 37 40 42 42 40 37 35 32 30 30 31 29 28 30 31 31 31 33 33 34 35 35 34 35 35 34 35 35 34 34 35 35 35 36 37 37 36 34 33 32 32 32 31 29 30 30 30 29 28 29 29 29 29 29 28 27 28 28 27 26 25
24 26 27 26 26 26 27 28 30 31 32 33 33 33 34 35 34 35 36 34 34 35 36 36 39 42 43 42 42 40 38 36 35 34 34 32 31 31 32 32 32 33 33 34 36 36 36 38 39 39 39 39 38 37 36 35 34 34 34 34 35 35 35 35 35 35 33 31 30 30 29 29 28 27 28 30 30 29 29 29 28 28 27 27 27
24 26 27 26 25 26 27 29 30 31 32 33 33 33 35 36 35 34 34 34 35 36 36 38 41 43 43 42 42 41 39 38 37 36 36 36 35 35 35 36 36 37 38 38 38 38 38 39 40 40 41 41 40 38 36 35 34 34 34 34 33 33 34 35 36 36 35 33 32 31 29 29 29 29 29 30 29 27 27 27 27 28 27 27 29
23 24 25 26 26 26 27 30 30 30 31 33 34 34 34 35 35 36 35 35 36 36 35 37 40 41 41 39 38 38 37 35 35 36 36 36 36 36 37 37 38 39 40 42 41 40 40 41 42 42 41 41 41 40 39 39 38 37 35 34 33 33 35 35 35 34 33 32 32 32 30 30 30 29 29 29 28 27 27 27 27 27 27 27 29
23 24 24 26 27 27 28 29 29 29 30 31 33 34 35 35 35 36 35 34 34 34 34 34 36 36 37 36 35 35 35 34 35 35 35 35 36 36 37 37 38 38 39 40 41 41 41 42 43 43 42 42 43 43 43 42 41 39 37 36 37 37 37 36 36 35 33 30 29 30 30 29 29 29 28 28 28 27 27 28 28 28 28 27 27
22 23 24 25 26 27 28 29 28 29 30 30 31 33 35 34 34 34 33 32 31 31 33 34 34 34 35 35 34 34 34 35 35 35 35 35 36 36 37 37 37 38 38 38 39 39 39 41 43 44 45 46 47 47 47 45 44 43 41 40 38 36 35 37 39 38 34 29 27 28 28 28 28 28 27 28 29 28 28 29 29 29 29 28 28
21 22 23 25 26 27 28 28 28 29 29 29 30 32 33 33 33 33 32 31 30 31 33 34 34 34 35 36 35 35 35 35 35 35 36 36 37 38 38 39 40 41 41 41 40 40 39 40 41 42 42 43 43 43 43 41 40 39 38 36 35 35 36 40 40 37 34 31 30 30 29 28 29 29 29 29 30 28 28 29 30 30 30 29 28
21 23 24 25 25 26 27 27 27 28 28 29 30 31 31 32 33 32 31 31 31 31 32 32 33 34 35 36 36 36 35 35 36 36 37 38 39 38 38 39 40 41 41 40 39 39 39 39 40 41 42 43 43 43 43 42 42 42 40 39 39 39 40 42 39 35 34 33 34 34 32 29 29 30 30 30 29 28 27 29 30 31 31 30 29
21 23 25 25 24 24 25 26 26 27 28 29 29 30 30 31 31 31 30 30 30 30 31 32 33 34 34 35 35 35 35 35 36 37 37 38 39 40 40 39 40 40 40 39 39 39 39 40 42 43 44 46 46 46 46 45 45 44 42 41 42 43 43 43 40 35 34 34 35 35 33 31 30 30 30 31 30 29 29 29 29 29 30 30 30
22 23 24 24 23 23 24 25 26 26 27 28 29 30 30 30 30 30 30 29 30 31 31 31 32 33 34 34 34 34 34 34 36 37 39 39 40 40 40 39 39 39 38 38 38 38 38 39 39 40 41 43 43 43 43 43 43 42 41 41 41 42 42 41 39 36 35 35 35 35 33 32 31 31 31 32 31 30 29 29 29 30 30 29 30
22 22 22 23 23 24 24 25 25 26 27 27 28 29 29 30 30 30 30 29 30 30 31 31 32 33 35 36 35 34 33 35 37 39 39 39 39 39 38 37 37 37 36 35 36 36 35 35 35 36 37 38 38 39 40 40 40 40 40 40 40 40 40 39 39 38 37 36 35 34 32 31 30 29 30 31 30 29 29 29 30 30 30 29 30
21 21 22 22 23 24 24 25 25 26 27 27 27 28 29 29 30 30 30 30 30 30 32 33 34 35 36 36 35 33 33 35 37 38 37 36 36 36 34 33 33 32 31 31 30 30 29 29 30 31 33 34 34 35 37 38 38 39 39 39 40 40 39 39 39 39 39 37 35 33 32 31 30 29 29 29 29 29 30 31 31 31 30 30 31
Wind_Direction
13 12 12 12 12 13 13 13 12 10 9 9 7 5 5 4 2 359 358 358 358 357 356 356 355 354 354 354 354 353 352 352 352 352 350 349 347 347 347 345 341 339 336 332 330 330 325 315 302 286 274 266 260 254 250 247 243 239 234 231 230 227 226 226 228 257 266 263 262 266 267 263 262 264 270 279 282 277 269 260 255 251 246 241 234
8 7 7 7 7 7 8 8 7 7 6 5 3 2 1 0 359 357 356 356 355 355 354 353 352 352 351 351 351 351 350 350 349 349 348 347 346 345 344 342 339 337 337 335 333 330 327 324 319 311 297 278 265 260 256 251 244 241 238 233 231 230 227 228 227 236 260 263 260 260 261 255 253 255 258 264 272 278 275 264 254 246 242 239 234
2 2 1 2 2 2 3 3 3 3 3 1 360 359 357 357 356 354 353 352 351 352 352 351 350 349 348 348 347 347 347 347 346 346 345 344 343 341 339 339 338 335 333 332 332 331 327 323 320 320 316 302 280 266 259 255 249 243 240 236 234 234 230 228 229 229 243 258 259 255 253 251 250 253 255 257 262 267 269 264 255 246 240 236 233
355 355 356 356 356 357 358 358 357 358 358 357 357 356 354 354 353 351 349 348 348 348 348 348 347 347 346 345 344 343 343 343 342 342 342 341 339 337 336 336 334 333 330 329 328 328 326 322 320 319 320 316 302 284 267 257 253 247 244 241 238 236 233 230 230 232 236 250 256 253 251 251 251 252 251 249 250 256 261 259 252 245 239 235 232
350 350 350 351 351 352 352 352 352 353 353 352 351 351 351 351 350 349 347 345 343 344 344 344 344 343 343 341 340 339 339 338 338 338 337 337 335 333 333 333 331 329 327 326 325 324 322 319 318 318 317 315 312 305 291 272 258 249 246 245 241 237 237 234 232 232 233 240 251 254 251 248 250 250 246 240 240 245 250 250 246 242 237 233 231
345 344 343 343 344 346 347 346 346 347 348 348 347 345 345 346 346 346 345 341 340 340 340 340 339 339 339 338 337 336 335 334 333 333 333 332 332 331 331 330 328 326 325 323 322 321 319 316 314 315 314 311 309 310 307 298 281 261 249 246 244 241 238 235 234 233 231 233 242 250 250 245 244 244 240 236 235 236 237 238 238 236 232 229 226
343 341 339 337 338 340 342 341 340 340 341 341 342 341 341 341 341 342 341 338 335 336 336 335 334 334 334 333 333 332 332 331 330 330 329 329 329 328 327 326 325 323 321 320 319 317 316 314 313 311 309 308 307 307 308 308 306 294 274 256 245 241 239 237 234 232 232 233 234 240 245 245 241 239 237 235 234 235 231 226 225 226 226 225 222
339 339 337 334 335 336 337 337 335 335 335 335 336 336 336 336 336 337 337 334 331 331 331 330 330 329 329 328 329 328 328 327 327 326 325 325 326 324 323 323 321 320 319 317 316 316 314 312 311 309 306 304 304 304 304 305 308 307 299 284 260 241 236 238 236 231 232 235 234 234 237 240 239 236 232 225 221 224 224 221 220 219 218 220 221
327 330 329 328 329 330 331 331 331 331 331 332 333 333 332 332 332 333 333 331 329 327 326 326 324 324 324 324 324 324 323 322 322 322 321 321 321 320 319 318 317 316 315 315 314 313 312 311 309 308 307 305 304 305 305 305 305 304 303 301 289 261 239 232 233 233 232 233 235 233 231 233 232 228 220 214 214 218 220 220 222 220 215 215 218
310 314 316 320 322 321 320 322 323 323 324 325 326 326 327 327 327 328 328 327 326 325 323 322 320 318 319 319 319 319 318 316 316 316 317 318 317 316 315 314 314 313 311 311 311 310 310 309 308 308 308 308 308 307 306 304 305 304 303 303 302 291 270 244 229 228 231 233 233 230 227 230 230 224 220 221 221 220 217 215 219 218 210 210 215
298 302 305 312 315 312 310 311 312 312 313 314 315 315 316 318 319 320 322 322 321 321 319 318 316 315 313 312 312 313 312 312 312 312 313 314 314 313 312 311 310 309 307 307 307 307 308 307 307 308 308 308 308 308 307 305 306 308 308 306 303 299 291 275 251 232 225 227 233 231 227 232 232 226 224 225 222 217 214 212 212 207 199 201 208
291 295 300 307 311 309 307 305 305 305 306 306 306 307 307 307 309 311 313 314 314 314 314 312 312 311 309 307 306 307 307 308 308 308 309 310 311 310 309 308 306 305 304 303 302 303 304 305 305 306 305 306 307 307 306 306 306 307 307 307 304 298 292 287 277 259 237 227 230 230 229 234 236 229 224 224 220 216 214 210 207 205 202 204 205
287 291 295 302 307 308 306 304 302 302 303 303 301 300 299 298 300 303 305 307 307 306 306 306 306 306 305 303 302 302 302 303 304 305 305 306 307 306 304 303 302 301 300 299 299 299 299 300 301 302 303 304 305 306 306 307 307 307 307 307 305 301 294 289 285 279 266 249 238 234 232 232 234 233 228 224 218 213 211 210 207 206 205 207 212
284 287 291 299 305 306 304 303 302 301 302 302 299 296 294 293 294 297 299 300 300 300 301 301 301 300 299 299 298 298 298 299 300 301 301 302 302 301 300 299 298 297 297 296 295 295 295 295 296 297 300 302 302 304 305 305 306 306 306 306 305 302 300 294 288 285 278 267 256 249 243 235 232 236 234 227 218 212 209 207 206 207 209 214 219
282 284 288 296 303 304 303 302 301 301 301 299 297 294 292 291 292 294 296 296 295 296 296 296 296 296 295 295 295 294 295 296 296 296 297 299 300 299 297 296 295 294 294 293 292 291 291 292 292 292 294 297 299 300 302 304 304 303 303 303 302 301 299 294 288 284 280 274 266 259 255 246 237 238 236 228 221 219 218 216 214 213 212 214 214
282 285 288 296 301 302 302 302 300 300 299 297 295 293 291 291 292 294 295 294 293 293 292 292 292 292 292 292 292 291 292 293 293 293 293 295 296 296 294 293 292 291 290 290 289 289 289 288 288 289 291 293 295 297 299 300 301 300 299 299 300 300 297 293 290 285 281 277 272 266 263 255 246 243 238 230 224 222 221 219 217 211 206 201 197
281 285 289 296 300 301 302 302 299 298 297 295 292 291 290 291 293 296 296 294 293 292 290 289 289 288 288 289 289 289 290 291 290 290 291 291 291 291 290 290 289 288 288 287 287 286 286 285 285 286 288 290 292 295 297 299 298 297 296 297 298 298 296 294 295 294 289 283 277 273 269 262 254 248 241 235 230 223 215 210 208 202 196 193 190
281 285 290 296 299 300 302 301 299 298 296 294 293 291 292 293 294 295 294 293 292 291 290 288 286 285 285 285 286 286 286 288 288 288 288 288 288 287 286 286 286 286 286 286 284 283 282 283 283 283 285 287 289 292 295 296 296 294 294 296 296 295 295 297 302 303 299 293 285 279 273 266 258 251 243 237 233 223 214 210 208 200 194 198 196
282 286 290 295 297 298 299 297 296 296 295 294 294 294 294 294 295 295 293 291 290 289 288 287 285 284 284 283 284 284 284 286 287 286 286 285 284 284 283 282 282 283 283 284 283 282 280 280 281 281 282 284 285 288 291 293 295 293 292 292 291 290 293 299 305 305 301 298 292 284 275 266 259 252 246 240 234 224 218 218 213 202 197 202 195
284 286 288 292 294 294 295 293 293 294 295 295 295 295 295 295 295 295 293 291 289 288 287 286 285 285 285 285 284 283 283 284 285 286 286 283 281 281 281 280 279 279 281 281 281 281 279 278 278 279 281 281 282 284 287 290 293 293 289 287 286 289 294 300 303 301 298 295 293 288 280 269 259 253 247 243 236 227 223 222 217 209 205 202 194
282 284 287 290 292 292 293 293 294 295 295 295 295 295 295 295 295 294 293 292 290 288 287 287 286 285 285 285 284 283 283 283 284 285 285 283 281 279 278 277 277 277 278 278 278 278 277 276 277 278 279 280 281 283 285 288 291 291 287 284 286 290 295 299 299 298 296 292 289 287 282 272 260 250 245 241 236 229 225 223 220 215 209 201 195
281 285 289 291 292 294 295 296 296 296 295 296 295 295 295 295 294 293 292 291 290 288 287 287 285 285 285 284 284 284 283 283 283 284 284 282 280 278 277 276 276 276 276 275 274 274 275 275 276 277 279 280 282 284 285 287 289 287 284 284 287 290 292 294 294 292 291 289 284 280 278 272 260 249 241 237 235 230 226 223 222 219 213 208 205
285 288 290 293 294 296 297 297 297 296 296 297 296 295 295 294 293 292 291 290 289 287 287 286 285 284 284 284 283 284 284 284 283 283 282 282 280 279 277 276 276 274 273 272 273 273 274 276 277 277 277 279 282 285 286 286 286 284 281 282 286 289 290 290 288 285 284 284 281 274 271 267 259 249 240 235 232 230 227 225 224 221 215 213 215
290 292 294 297 298 299 299 298 298 297 297 297 296 294 294 293 292 291 289 288 287 285 285 286 284 283 283 283 283 283 283 284 284 283 282 281 280 279 277 276 275 274 273 272 273 274 274 275 276 277 279 282 285 287 286 284 283 280 279 282 285 288 289 287 283 280 278 278 275 269 265 262 257 250 244 238 235 233 230 228 227 223 218 216 217
294 296 299 300 300 301 300 299 299 299 298 298 295 293 293 292 290 289 288 287 285 284 284 284 283 282 282 281 281 282 284 284 284 284 283 281 280 280 279 277 275 274 274 275 276 276 277 279 281 284 286 287 286 285 283 281 280 279 279 282 284 285 284 282 278 274 271 271 269 265 264 262 257 253 249 244 239 235 230 227 224 221 218 216 214
297 298 300 300 301 302 301 300 300 300 299 297 294 292 291 289 288 287 286 284 283 282 283 283 283 282 281 280 280 282 285 285 285 285 285 284 283 281 280 277 274 275 278 281 282 282 282 282 283 284 285 284 282 279 278 279 280 280 280 281 281 280 278 275 273 268 264 265 265 263 264 265 262 257 252 245 237 231 225 219 214 212 210 206 199
298 299 299 300 301 301 301 300 300 299 298 297 294 292 290 287 286 285 284 283 283 283 283 283 283 281 280 281 282 283 284 284 283 284 284 283 282 281 281 282 283 285 286 285 283 282 281 280 280 280 279 277 275 274 277 279 279 279 279 278 278 276 274 272 270 267 265 264 263 263 265 267 266 259 249 239 231 227 220 212 206 203 200 194 183
298 298 298 299 301 300 300 299 299 298 297 296 293 291 289 287 286 284 283 283 282 283 282 281 279 279 280 281 282 282 281 280 279 280 282 282 283 284 286 287 286 284 283 281 279 279 278 278 277 274 271 269 270 273 275 274 275 275 275 275 276 276 276 274 270 266 264 262 261 263 265 267 264 255 243 234 228 223 216 209 204 199 191 184 175
296 297 298 300 300 300 299 299 298 296 295 294 292 290 288 286 285 285 286 285 281 279 280 279 278 278 278 278 279 280 279 279 280 281 282 282 283 283 283 283 281 279 277 277 277 276 275 273 270 267 265 264 268 272 271 270 271 272 271 271 274 274 275 273 268 265 263 261 259 260 262 263 260 250 237 228 225 221 213 206 203 197 189 183 178
297 298 300 301 300 300 300 298 297 296 294 293 293 293 292 290 285 281 283 286 284 281 279 278 279 281 281 281 281 281 280 282 284 286 285 284 284 283 282 282 281 279 278 279 278 277 276 273 270 269 268 267 267 267 266 266 268 269 270 271 272 272 272 270 268 267 266 263 260 259 259 258 254 244 231 223 222 219 211 206 202 194 188 185 179
298 299 300 300 299 300 299 297 296 295 293 292 292 293 295 295 293 288 283 282 284 285 284 282 282 283 283 284 284 283 283 284 286 286 286 286 286 285 285 285 285 284 284 283 280 277 274 272 269 268 268 265 263 262 262 263 262 264 267 268 267 267 268 268 268 269 269 266 262 259 257 254 247 239 229 221 218 213 205 202 200 194 192 190 180
298 298 299 299 299 299 297 295 294 293 293 294 293 292 292 294 297 297 294 289 285 284 285 285 286 285 284 284 284 284 284 286 287 287 287 288 288 289 290 290 290 289 288 287 283 277 274 271 269 268 265 261 260 260 260 261 260 261 263 265 265 265 265 266 269 271 271 269 263 257 255 251 244 238 229 220 214 207 199 197 196 195 197 195 182
299 298 298 299 299 298 295 294 293 292 292 292 293 293 291 289 292 297 299 299 296 292 286 283 284 286 287 285 285 285 285 286 288 288 289 289 290 290 290 289 287 286 285 283 280 275 272 268 265 263 262 259 258 258 258 258 259 259 259 259 260 260 261 264 268 270 270 268 263 258 254 249 242 236 227 216 208 202 197 196 196 194 193 188 180
299 299 298 298 297 295 293 292 292 291 291 290 290 290 290 289 289 292 295 299 301 301 296 290 285 285 288 288 288 287 287 287 287 287 287 288 287 287 288 287 285 282 278 275 271 269 268 266 262 260 258 256 256 256 256 257 258 258 258 257 257 259 261 264 267 268 267 264 260 256 252 246 239 231 220 209 204 201 198 196 194 191 188 181 175
301 300 299 298 294 292 291 291 291 290 290 290 289 289 289 290 291 289 288 289 293 296 297 295 293 290 289 289 290 289 287 287 287 287 286 287 287 288 289 287 284 281 276 270 265 262 261 261 261 262 262 261 259 256 254 255 255 254 254 255 256 258 261 261 259 260 260 259 258 254 248 242 235 224 214 205 198 196 196 195 193 191 188 180 171
301 301 300 298 295 292 291 290 290 289 289 289 290 290 290 290 289 288 287 286 285 286 289 292 295 295 293 290 291 291 289 288 288 287 287 287 287 287 286 282 279 279 277 273 269 265 261 258 257 258 259 261 262 262 261 261 262 261 259 257 254 254 257 256 252 252 252 254 255 252 246 239 230 220 212 204 198 196 195 192 191 192 187 180 172
301 300 300 299 297 295 293 291 290 290 290 289 289 290 290 290 288 287 286 285 285 285 287 290 294 297 297 295 294 293 292 291 290 288 287 287 287 285 282 279 280 279 277 275 275 273 272 270 267 265 263 260 260 260 258 258 260 260 260 260 258 257 257 257 255 255 253 251 252 249 243 236 228 217 209 204 200 198 194 190 189 190 187 181 175
300 300 300 300 299 297 294 293 292 292 291 290 290 290 290 290 289 288 286 286 286 286 287 290 292 293 295 296 298 297 295 294 292 288 285 284 282 279 276 274 273 272 270 269 267 263 261 263 264 265 267 267 268 268 265 263 261 260 259 260 259 258 257 255 255 256 255 253 252 248 240 233 227 217 210 206 202 198 195 190 187 184 180 177 177
302 301 301 300 298 295 294 293 293 293 293 292 292 292 291 290 289 289 288 288 288 287 287 289 289 289 291 296 298 298 295 292 289 285 283 280 277 275 273 271 270 270 270 270 270 266 263 262 261 260 261 263 265 265 265 264 263 262 261 260 259 258 256 252 250 250 248 247 248 247 239 231 225 217 211 208 204 197 192 189 185 181 177 178 181
304 302 301 300 298 295 294 293 292 292 293 294 294 294 292 290 290 291 291 291 290 289 288 288 288 289 292 295 297 297 295 290 287 286 285 282 279 277 274 271 270 271 271 272 273 274 275 276 277 277 276 275 274 273 272 269 264 261 259 256 254 252 251 250 250 249 245 242 244 243 237 230 224 218 211 209 206 199 192 189 186 183 180 177 174
304 302 301 300 298 296 295 292 291 292 294 294 294 294 293 292 292 292 292 291 290 291 291 290 289 292 294 296 296 296 293 289 287 286 284 282 280 278 276 273 272 272 272 272 272 273 274 276 277 278 278 278 277 278 278 277 275 274 271 265 260 256 253 250 250 250 248 245 243 240 235 228 223 217 211 209 207 201 193 188 185 181 178 174 168
303 301 301 300 298 297 294 293 293 295 296 296 295 294 294 295 295 294 294 293 293 293 293 292 293 295 296 297 298 297 294 289 287 285 283 282 280 277 275 273 272 272 273 273 273 273 274 273 273 272 271 273 273 274 276 277 278 279 278 275 271 267 261 255 249 245 244 245 242 236 232 227 222 217 212 208 203 197 191 186 181 177 174 172 168
303 300 299 298 297 296 294 294 296 297 297 297 297 297 296 296 297 297 296 295 295 295 294 294 296 298 299 300 301 300 296 291 289 287 285 284 281 277 275 274 272 271 271 271 271 271 271 271 271 270 270 271 273 274 276 277 275 274 274 274 274 273 270 265 255 243 237 237 237 233 228 225 221 216 212 205 198 191 187 182 177 174 173 171 168
302 300 298 298 298 297 296 297 298 297 297 297 297 298 299 299 299 299 299 297 296 296 296 296 298 300 301 301 302 301 297 294 292 290 288 286 283 281 279 277 274 273 272 271 270 270 268 268 270 271 271 273 274 274 273 273 272 273 274 274 274 273 271 268 262 249 236 232 232 229 225 222 218 213 208 201 194 187 183 179 175 173 171 168 167
301 301 298 298 298 298 299 300 300 299 299 299 299 300 302 302 302 302 302 300 298 298 298 298 300 301 301 302 303 302 299 297 295 293 291 288 286 284 283 282 279 278 276 275 274 273 270 269 270 271 271 271 270 269 268 267 268 269 269 269 270 270 269 270 265 252 236 228 228 226 221 217 213 209 203 196 191 186 182 179 176 172 169 168 169
303 301 298 298 299 299 300 302 302 302 302 302 301 303 304 304 304 305 304 302 300 299 299 300 301 302 302 303 303 302 301 299 297 294 292 291 289 287 286 285 283 281 280 278 277 275 272 270 269 269 269 269 269 269 269 268 269 270 270 271 272 272 273 273 266 247 229 226 228 225 220 215 209 204 200 195 190 186 182 178 175 172 171 171 170
304 302 300 300 300 300 300 302 303 303 304 305 305 305 305 306 307 307 305 304 303 301 301 302 303 303 303 303 302 301 300 299 297 295 293 292 291 289 288 286 284 282 280 278 276 274 271 269 268 269 270 272 275 276 275 275 276 276 274 273 273 271 271 272 265 245 229 227 228 222 216 211 205 201 197 192 187 184 180 177 175 174 172 170 168
304 303 303 303 302 300 301 303 303 304 306 307 307 307 307 307 308 307 306 306 306 305 304 304 304 304 304 304 303 302 301 299 298 297 295 293 293 292 290 288 286 284 282 280 277 274 272 269 268 268 268 269 270 271 271 271 272 271 269 269 268 267 267 269 263 247 232 229 226 219 213 208 202 197 193 188 185 182 178 175 174 172 168 167 165
306 306 306 305 303 302 303 304 303 304 307 308 307 308 308 308 308 308 308 308 308 308 307 306 306 306 306 306 305 304 302 300 299 299 298 296 295 295 293 291 289 286 284 281 279 276 273 270 268 266 266 265 266 266 267 267 267 266 266 266 266 266 265 265 260 247 235 227 221 215 210 206 199 194 190 186 184 181 176 172 170 167 164 163 162
308 309 309 307 307 306 305 305 305 306 308 309 308 308 309 310 310 310 310 310 311 310 309 308 308 308 308 308 307 305 303 302 302 301 300 299 299 299 297 295 293 291 288 285 283 280 277 273 270 267 266 265 264 264 264 264 264 263 263 263 264 264 264 261 256 247 235 225 216 209 205 200 193 189 186 183 180 176 172 168 166 164 161 160 160
310 313 313 312 311 309 308 307 308 309 311 312 310 309 310 310 310 311 311 312 312 311 311 311 311 310 310 310 308 305 303 304 304 304 303 304 305 305 304 302 300 298 295 293 290 286 282 278 275 271 269 267 265 264 264 263 263 264 264 264 265 265 262 258 252 242 230 219 209 202 197 192 186 182 180 177 174 171 168 165 163 162 160 159 159